Regional Weather Roundup
Issued by NWS

Home | Current Version | Previous Version | Text Only | Print | Product List | Glossary Off
Versions: 1 2 3 4 5 6 7 8 9 10 11 12 13 14 15 16 17 18 19 20 21 22 23 24 25 26 27 28 29 30 31 32 33 34 35 36 37 38 39 40 41 42 43 44 45 46 47 48 49 50

011
ASUS43 KLSX 210310
RWRMO

WEATHER SUMMARY FOR MISSOURI
NATIONAL WEATHER SERVICE SPRINGFIELD MO
900 PM CST FRI JAN 20 2017

NOTE: "FAIR" INDICATES FEW OR NO CLOUDS BELOW 12,000 FEET WITH NO
       SIGNIFICANT WEATHER AND/OR OBSTRUCTIONS TO VISIBILITY.
       CURRENT SKY AND/OR WEATHER CONDITIONS ARE NOT AVAILABLE FOR
       CHILLICOTHE AND FARMINGTON.

MOZ001>031-035>038-043-044-053-054-210400-
...NORTHERN AND WESTERN MISSOURI...

CITY           SKY/WX    TMP DP  RH WIND       PRES   REMARKS
KANSAS CTY INT MOCLDY    46  43  89 SE9       29.45F
KANSAS C DTWN  CLOUDY    48  46  93 S5        29.46S
LEE`S SUMMIT   CLEAR     47  45  93 S5        29.48S
ST JOSEPH      CLOUDY    45  45 100 SW3       29.45S FOG
CHILLICOTHE      N/A     48  47  96 SE5       29.49S
KIRKSVILLE     CLOUDY    47  47 100 SE9       29.51F FOG

$$
MOZ066>068-077>081-088>096-101>105-210400-
...SOUTHWEST MISSOURI...

CITY           SKY/WX    TMP DP  RH WIND       PRES   REMARKS
SPRINGFIELD    CLEAR     53  39  59 S10       29.54R
JOPLIN         CLEAR     51  39  63 S9        29.52R
BRANSON        CLEAR     57  39  51 S13       29.59R

$$
MOZ032>034-039>042-045>050-055>058-069>072-210400-
...CENTRAL MISSOURI...

CITY           SKY/WX    TMP DP  RH WIND       PRES   REMARKS
COLUMBIA       CLEAR     49  47  93 E9        29.51S
JEFFERSON CITY CLEAR     47  45  93 E7        29.52R
ROLLA          CLEAR     53  48  83 S10       29.54R
SEDALIA        PTCLDY    48  46  93 SE5       29.50S
WHITEMAN AFB   CLEAR     43  43 100 S6        29.47S
WARRENSBURG    CLEAR     45  43  93 SE5       29.48S
OSAGE BEACH    CLEAR     52  46  80 S7        29.54R

$$
MOZ051-052-059>065-210400-
...EAST CENTRAL MISSOURI...

CITY           SKY/WX    TMP DP  RH WIND       PRES   REMARKS
ST LOUIS INTL  PTCLDY    54  49  83 SE10      29.58S
SPIRIT OF STL  CLEAR     43  42  97 E3        29.56S FOG
ST CHARLES     CLEAR     46  46 100 E9        29.57S FOG

$$
MOZ072>076-082>087-097>100-106>115-210400-
...SOUTH CENTRAL AND SOUTHEAST MISSOURI...

CITY           SKY/WX    TMP DP  RH WIND       PRES   REMARKS
CAPE GIRARDEAU CLEAR     50  47  89 SE5       29.64S
FARMINGTON     PTCLDY    54  51  90 S10       29.61R
POPLAR BLUFF   CLEAR     54  52  93 S6        29.63S
WEST PLAINS    CLEAR     55  47  74 S9        29.61R

$$




USA.gov is the U.S. government's official web portal to all federal, state and local government web resources and services.